This is the latest recevied weather packets stored in our database for station/object KD0RIH. If no packets are shown the sender has not sent any weather packets the latest 10 day(s).
| Time | Temp. | Humidity | Pressure | Rain* | Wind** | Luminosity | Snow |
|---|---|---|---|---|---|---|---|
| 1777865988 | 17.22° C | 52% | 1008.4 hPa | 0 mm | - | 0 W/m² | - |
| 1777865686 | 17.22° C | 51% | 1008.4 hPa | 0 mm | - | 0 W/m² | - |
| 1777865383 | 16.67° C | 52% | 1008.6 hPa | 0 mm | - | 0 W/m² | - |
| 1777865080 | 16.67° C | 53% | 1008.6 hPa | 0 mm | - | 0 W/m² | - |
| 1777864777 | 16.67° C | 56% | 1008.6 hPa | 0 mm | - | 0 W/m² | - |
| 1777864474 | 16.67° C | 54% | 1008.4 hPa | 0 mm | - | 0 W/m² | - |
| 1777864170 | 17.22° C | 54% | 1008.4 hPa | 0 mm | - | 0 W/m² | - |
| 1777863867 | 17.22° C | 51% | 1008.3 hPa | 0 mm | - | 0 W/m² | - |
| 1777863563 | 17.22° C | 51% | 1008.3 hPa | 0 mm | - | 0 W/m² | - |
| 1777863260 | 17.22° C | 51% | 1008.2 hPa | 0 mm | - | 0 W/m² | - |
| 1777862957 | 17.78° C | 52% | 1008.2 hPa | 0 mm | - | 0 W/m² | - |
| 1777862654 | 17.78° C | 51% | 1008.2 hPa | 0 mm | - | 0 W/m² | - |
| 1777862351 | 17.78° C | 48% | 1008.2 hPa | 0 mm | - | 0 W/m² | - |
| 1777862048 | 17.78° C | 49% | 1008.1 hPa | 0 mm | - | 0 W/m² | - |
| 1777861743 | 17.78° C | 48% | 1008.4 hPa | 0 mm | - | 0 W/m² | - |
| 1777861440 | 18.33° C | 51% | 1008.2 hPa | 0 mm | - | 0 W/m² | - |
| 1777861136 | 18.33° C | 46% | 1008.2 hPa | 0 mm | - | 0 W/m² | - |
| 1777860834 | 18.89° C | 46% | 1008.1 hPa | 0 mm | - | 0 W/m² | - |
| 1777860531 | 18.89° C | 46% | 1008.2 hPa | 0 mm | - | 0 W/m² | - |
| 1777860228 | 19.44° C | 45% | 1008.1 hPa | 0 mm | - | 0 W/m² | - |
| 1777859924 | 19.44° C | 44% | 1008 hPa | 0 mm | - | 0 W/m² | - |
| 1777859620 | 19.44° C | 42% | 1008.1 hPa | 0 mm | - | 0 W/m² | - |
| 1777859316 | 19.44° C | 43% | 1008.1 hPa | 0 mm | - | 0 W/m² | - |
| 1777859012 | 20° C | 44% | 1008.2 hPa | 0 mm | - | 0 W/m² | - |
| 1777858710 | 20° C | 43% | 1007.9 hPa | 0 mm | - | 0 W/m² | - |
* Rain latest hour (hover to see other rain measurements)
** Current wind speed in m/s (hover to see current wind gust speed)